Home   Weather   Varel   Past weeks

Flag for Germany Past Weather in Varel, Lower Saxony, Germany — Yesterday and Last 2 Weeks

Now
46 °F

Drizzle. Fog.


Feels Like: 41 °F
Forecast: 44 / 47 °F
Wind: 10 mph from Southwest

Location: Wittmundhaven

Current Time: Dec 10, 2016 at 10:02:12 am

Latest Report: Dec 10, 2016 at 9:20 am


Visibility: 2 mi

Pressure: 30.09 "Hg

Humidity: 100%

Dew Point: 46 °F

Location of VarelLocation

Past Weather in Varel — Graph

°F

Varel Temperature Yesterday

Maximum temperature yesterday: 50 °F (at 1:20 pm)
Minimum temperature yesterday: 46 °F (at 12:20 am)
Average temperature yesterday: 48 °F

High & Low Weather Summary for the Past Weeks

 TemperatureHumidityPressure
High50 °F (Dec 9, 1:20 pm)100% (Nov 25, 8:20 am)30.57 "Hg (Nov 25, 8:20 am)
Low21 °F (Dec 5, 8:20 am)61% (Nov 28, 12:20 pm)30.01 "Hg (Nov 26, 7:20 pm)
Average37 °F89%30.28 "Hg
* Reported Nov 25 8:20 am — Dec 10 8:20 am, Varel, Weather by CustomWeather, © 2016

Note: Actual official high and low records may vary slightly from our data, if they occured in-between our weather recording intervals... More about our weather records

Advertising

Varel Weather History for the Previous 24 Hours

Scroll right to see more
 ConditionsComfort  
Time TempWeatherWind HumidityBarometerVisibility
8:20 am
Sat, Dec 10
46 °FDrizzle. Fog.12 mph93%30.09 "Hg1 mi
8:04 am46 °FDrizzle. Fog.10 mph93%30.09 "Hg2 mi
7:20 am46 °FFog.13 mph93%30.09 "Hg3 mi
6:20 am46 °FCool.14 mph93%30.09 "Hg4 mi
5:20 am46 °FCool.14 mph93%30.09 "Hg4 mi
4:20 am48 °FCool.14 mph87%30.09 "Hg5 mi
3:20 am50 °FCool.16 mph88%30.09 "Hg6 mi
2:20 am48 °FCool.8 mph94%30.12 "Hg4 mi
1:20 am48 °FCool.12 mph94%30.12 "Hg4 mi
12:20 am48 °FCool.12 mph94%30.15 "Hg4 mi
11:20 pm
Fri, Dec 9
50 °FCool.13 mph94%30.15 "Hg3 mi
10:20 pm50 °FCool.13 mph94%30.18 "Hg2 mi
9:20 pm50 °FCool.15 mph94%30.18 "Hg2 mi
8:20 pm50 °FCool.14 mph94%30.18 "Hg2 mi
7:20 pm48 °FCool.14 mph100%30.18 "Hg1 mi
6:20 pm48 °FCool.13 mph100%30.21 "Hg1 mi
5:20 pm48 °FCool.15 mph100%30.21 "Hg1 mi
4:20 pm50 °FCool.12 mph94%30.21 "Hg1 mi
3:20 pm50 °FCool.13 mph94%30.24 "Hg2 mi
2:20 pm50 °FCool.12 mph100%30.24 "Hg2 mi
1:20 pm50 °FDrizzle. Fog.10 mph94%30.27 "Hg1 mi
12:20 pm48 °FFog.12 mph100%30.24 "Hg2 mi
12:00 pm48 °FFog.10 mph100%30.24 "Hg2 mi
11:20 am48 °FFog.16 mph100%30.27 "Hg1 mi
10:47 am46 °FFog.12 mph100%30.27 "Hg1 mi
10:20 am46 °FFog.14 mph100%30.24 "Hg1 mi
Weather by CustomWeather, © 2016

See weather overviewHow to use our weather pages